| time (UTC) | temp F | wind direction | speed knots | gust knots | rain 1hr in | rain 24hr in | rain mn in | humidity % | barometer mb |
| 20260507060805 | 48 | 65 | 0.9 | 1.7 | 0.00 | 0.00 | 0.00 | 76 | 1015.2 |
| 20260507060304 | 48 | 65 | 0.0 | 1.7 | 0.00 | 0.00 | 0.00 | 78 | 1015.2 |
| 20260507054804 | 45 | 65 | 0.9 | 0.9 | 0.00 | 0.00 | 0.00 | 82 | 1015.1 |
| 20260507054639 | 45 | 0 | 0.0 | 1.7 | 0.00 | 0.00 | 0.00 | 82 | 1015.1 |
| 20260507054304 | 44 | 65 | 0.0 | 0.9 | 0.00 | 0.00 | 0.00 | 82 | 1015.0 |
| 20260507053307 | 43 | 65 | 0.0 | 1.7 | 0.00 | 0.00 | 0.00 | 83 | 1014.9 |
| 20260507053058 | 42 | 0 | 0.0 | 0.9 | 0.00 | 0.00 | 0.00 | 83 | 1014.7 |
| 20260507051804 | 40 | 65 | 0.0 | 0.9 | 0.00 | 0.00 | 0.00 | 84 | 1014.7 |
| 20260507051603 | 39 | 0 | 0.0 | 1.7 | 0.00 | 0.00 | 0.00 | 84 | 1014.7 |
| 20260507051304 | 39 | 65 | 0.0 | 0.9 | 0.00 | 0.00 | 0.00 | 84 | 1014.7 |
| 20260507050804 | 38 | 65 | 0.0 | 1.7 | 0.00 | 0.00 | 0.00 | 84 | 1014.7 |
| 20260507050304 | 37 | 65 | 0.9 | 1.7 | 0.00 | 0.00 | 0.00 | 84 | 1014.7 |
| 20260507050059 | 37 | 65 | 0.0 | 1.7 | 0.00 | 0.00 | 0.00 | 84 | 1014.5 |
| 20260507044804 | 36 | 65 | 0.0 | 0.0 | 0.00 | 0.00 | 0.00 | 84 | 1014.4 |
| 20260507044603 | 36 | 0 | 0.0 | 1.7 | 0.00 | 0.00 | 0.00 | 84 | 1014.4 |
| 20260507044304 | 36 | 65 | 0.0 | 0.9 | 0.00 | 0.00 | 0.00 | 84 | 1014.5 |
| 20260507043804 | 35 | 65 | 0.9 | 1.7 | 0.00 | 0.00 | 0.00 | 84 | 1014.5 |
| 20260507043304 | 35 | 65 | 0.0 | 0.9 | 0.00 | 0.00 | 0.00 | 84 | 1014.5 |
| 20260507043103 | 34 | 0 | 0.0 | 0.9 | 0.00 | 0.00 | 0.00 | 83 | 1014.4 |
| 20260507041602 | 34 | 0 | 0.0 | 1.7 | 0.00 | 0.00 | 0.00 | 84 | 1014.3 |
| 20260507041304 | 34 | 65 | 0.0 | 0.0 | 0.00 | 0.00 | 0.00 | 84 | 1014.4 |
| 20260507040804 | 34 | 65 | 0.9 | 1.7 | 0.00 | 0.00 | 0.00 | 84 | 1014.4 |
| 20260507040304 | 33 | 65 | 1.7 | 2.6 | 0.00 | 0.00 | 0.00 | 84 | 1014.3 |
| 20260507040058 | 33 | 65 | 1.7 | 3.5 | 0.00 | 0.00 | 0.00 | 83 | 1014.3 |
| 20260507034600 | 32 | 65 | 0.9 | 1.7 | 0.00 | 0.00 | 0.00 | 83 | 1014.1 |
| 20260507034304 | 33 | 65 | 0.9 | 1.7 | 0.00 | 0.00 | 0.00 | 83 | 1014.2 |
| 20260507033804 | 33 | 65 | 0.0 | 0.0 | 0.00 | 0.00 | 0.00 | 84 | 1014.1 |
| 20260507033304 | 33 | 65 | 0.0 | 2.6 | 0.00 | 0.00 | 0.00 | 83 | 1014.1 |
| 20260507033105 | 33 | 0 | 0.0 | 2.6 | 0.00 | 0.00 | 0.00 | 83 | 1014.1 |
| 20260507031804 | 33 | 65 | 1.7 | 1.7 | 0.00 | 0.00 | 0.00 | 83 | 1014.1 |
| 20260507031609 | 32 | 65 | 0.0 | 2.6 | 0.00 | 0.00 | 0.00 | 83 | 1014.1 |
| 20260507031304 | 32 | 65 | 0.9 | 1.7 | 0.00 | 0.00 | 0.00 | 83 | 1014.1 |
| 20260507030100 | 32 | 65 | 0.0 | 1.7 | 0.00 | 0.00 | 0.00 | 82 | 1014.1 |
| 20260507024604 | 32 | 0 | 0.0 | 1.7 | 0.00 | 0.00 | 0.00 | 82 | 1014.0 |
| 20260507024305 | 33 | 65 | 0.0 | 0.9 | 0.00 | 0.00 | 0.00 | 83 | 1014.0 |
| 20260507023804 | 33 | 65 | 0.9 | 1.7 | 0.00 | 0.00 | 0.00 | 83 | 1014.0 |
| 20260507023304 | 33 | 65 | 0.9 | 1.7 | 0.00 | 0.00 | 0.00 | 82 | 1013.8 |
| 20260507023107 | 33 | 65 | 0.9 | 1.7 | 0.00 | 0.00 | 0.00 | 82 | 1013.8 |
| 20260507021602 | 33 | 0 | 0.0 | 0.9 | 0.00 | 0.00 | 0.00 | 82 | 1013.7 |
| 20260507021304 | 34 | 65 | 0.0 | 0.9 | 0.00 | 0.00 | 0.00 | 82 | 1013.8 |
| 20260507020304 | 34 | 65 | 0.0 | 0.0 | 0.00 | 0.00 | 0.00 | 82 | 1013.8 |
| 20260507014804 | 34 | 65 | 0.0 | 0.0 | 0.00 | 0.00 | 0.00 | 82 | 1013.8 |
| 20260507014605 | 34 | 0 | 0.0 | 2.6 | 0.00 | 0.00 | 0.00 | 81 | 1013.9 |
| 20260507014304 | 34 | 65 | 0.0 | 2.6 | 0.00 | 0.00 | 0.00 | 82 | 1013.8 |
| 20260507013804 | 34 | 65 | 0.9 | 2.6 | 0.00 | 0.00 | 0.00 | 82 | 1013.8 |
| 20260507013056 | 34 | 65 | 2.6 | 3.5 | 0.00 | 0.00 | 0.00 | 81 | 1013.8 |
| 20260507011804 | 34 | 65 | 2.6 | 2.6 | 0.00 | 0.00 | 0.00 | 81 | 1013.7 |
| 20260507011556 | 34 | 65 | 2.6 | 3.5 | 0.00 | 0.00 | 0.00 | 81 | 1013.7 |
| 20260507010804 | 35 | 65 | 1.7 | 2.6 | 0.00 | 0.00 | 0.00 | 81 | 1013.8 |
| 20260507010305 | 35 | 65 | 2.6 | 4.3 | 0.00 | 0.00 | 0.00 | 81 | 1013.7 |
| 20260507004804 | 36 | 65 | 1.7 | 2.6 | 0.00 | 0.00 | 0.00 | 81 | 1013.6 |
| 20260507004558 | 35 | 65 | 1.7 | 3.5 | 0.00 | 0.00 | 0.00 | 80 | 1013.5 |
| 20260507004304 | 35 | 65 | 1.7 | 2.6 | 0.00 | 0.00 | 0.00 | 81 | 1013.6 |
| 20260507003305 | 35 | 65 | 2.6 | 4.3 | 0.00 | 0.00 | 0.00 | 80 | 1013.5 |
| 20260507003055 | 35 | 65 | 2.6 | 4.3 | 0.00 | 0.00 | 0.00 | 79 | 1013.4 |
| 20260507001605 | 35 | 65 | 4.3 | 7.0 | 0.00 | 0.00 | 0.00 | 79 | 1013.4 |
| 20260507000306 | 36 | 66 | 5.2 | 7.0 | 0.00 | 0.00 | 0.00 | 78 | 1013.3 |
| 20260507000057 | 36 | 64 | 5.2 | 7.0 | 0.00 | 0.00 | 0.00 | 78 | 1013.3 |
| 20260506234600 | 36 | 56 | 4.3 | 7.0 | 0.00 | 0.00 | 0.00 | 77 | 1013.3 |
| 20260506234304 | 37 | 56 | 4.3 | 7.0 | 0.00 | 0.00 | 0.00 | 78 | 1013.3 |
| 20260506233304 | 37 | 54 | 4.3 | 5.2 | 0.00 | 0.00 | 0.00 | 77 | 1013.4 |
| 20260506233109 | 37 | 54 | 3.5 | 5.2 | 0.00 | 0.00 | 0.00 | 77 | 1013.4 |
| 20260506231804 | 37 | 50 | 4.3 | 5.2 | 0.00 | 0.00 | 0.00 | 77 | 1013.3 |
| 20260506231559 | 37 | 50 | 3.5 | 6.1 | 0.00 | 0.00 | 0.00 | 77 | 1013.3 |
| 20260506231304 | 37 | 55 | 4.3 | 5.2 | 0.00 | 0.00 | 0.00 | 77 | 1013.3 |
| 20260506230804 | 37 | 53 | 4.3 | 6.1 | 0.00 | 0.00 | 0.00 | 77 | 1013.2 |
| 20260506230304 | 37 | 57 | 4.3 | 7.0 | 0.00 | 0.00 | 0.00 | 76 | 1013.2 |
| 20260506230058 | 37 | 57 | 3.5 | 7.0 | 0.00 | 0.00 | 0.00 | 76 | 1013.0 |
| 20260506224804 | 38 | 50 | 4.3 | 5.2 | 0.00 | 0.00 | 0.00 | 76 | 1013.0 |
| 20260506224556 | 38 | 48 | 4.3 | 7.0 | 0.00 | 0.00 | 0.00 | 76 | 1013.1 |
| 20260506224304 | 38 | 46 | 5.2 | 7.0 | 0.00 | 0.00 | 0.00 | 77 | 1013.0 |
| 20260506223804 | 38 | 51 | 5.2 | 7.0 | 0.00 | 0.00 | 0.00 | 76 | 1013.0 |
| 20260506223102 | 38 | 40 | 3.5 | 7.8 | 0.00 | 0.00 | 0.00 | 75 | 1013.0 |
| 20260506221804 | 38 | 44 | 5.2 | 7.8 | 0.00 | 0.00 | 0.00 | 76 | 1012.9 |
| 20260506221559 | 38 | 44 | 5.2 | 7.8 | 0.00 | 0.00 | 0.00 | 75 | 1012.8 |
| 20260506221304 | 39 | 45 | 5.2 | 7.0 | 0.00 | 0.00 | 0.00 | 75 | 1012.8 |
| 20260506220827 | 39 | 44 | 4.3 | 6.1 | 0.00 | 0.00 | 0.00 | 75 | 1012.8 |
| 20260506220304 | 39 | 44 | 4.3 | 7.0 | 0.00 | 0.00 | 0.00 | 75 | 1012.7 |
| 20260506220059 | 38 | 44 | 3.5 | 7.0 | 0.00 | 0.00 | 0.00 | 74 | 1012.7 |
| 20260506214804 | 39 | 32 | 5.2 | 7.0 | 0.00 | 0.00 | 0.00 | 74 | 1012.4 |
| 20260506214557 | 39 | 29 | 5.2 | 7.0 | 0.00 | 0.00 | 0.00 | 74 | 1012.3 |
| 20260506214304 | 40 | 26 | 5.2 | 7.0 | 0.00 | 0.00 | 0.00 | 74 | 1012.4 |
| 20260506213804 | 40 | 27 | 5.2 | 5.2 | 0.00 | 0.00 | 0.00 | 74 | 1012.4 |
| 20260506213304 | 40 | 27 | 4.3 | 5.2 | 0.00 | 0.00 | 0.00 | 74 | 1012.3 |
| 20260506213113 | 40 | 27 | 2.6 | 4.3 | 0.00 | 0.00 | 0.00 | 73 | 1012.3 |
| 20260506211557 | 40 | 65 | 1.7 | 3.5 | 0.00 | 0.00 | 0.00 | 72 | 1012.2 |
| 20260506211304 | 41 | 65 | 1.7 | 2.6 | 0.00 | 0.00 | 0.00 | 72 | 1012.2 |
| 20260506210804 | 41 | 65 | 0.9 | 1.7 | 0.00 | 0.00 | 0.00 | 72 | 1012.3 |
| 20260506210058 | 41 | 65 | 1.7 | 4.3 | 0.00 | 0.00 | 0.00 | 71 | 1012.2 |
| 20260506204804 | 42 | 65 | 2.6 | 2.6 | 0.00 | 0.00 | 0.00 | 70 | 1012.1 |
| 20260506204559 | 42 | 65 | 2.6 | 3.5 | 0.00 | 0.00 | 0.00 | 70 | 1012.1 |
| 20260506204304 | 43 | 65 | 2.6 | 2.6 | 0.00 | 0.00 | 0.00 | 70 | 1012.2 |
| 20260506203804 | 43 | 65 | 2.6 | 2.6 | 0.00 | 0.00 | 0.00 | 70 | 1012.1 |
| 20260506203304 | 43 | 65 | 2.6 | 6.1 | 0.00 | 0.00 | 0.00 | 70 | 1012.1 |
| 20260506203057 | 43 | 65 | 2.6 | 6.1 | 0.00 | 0.00 | 0.00 | 69 | 1012.0 |
| 20260506201804 | 44 | 65 | 4.3 | 6.1 | 0.00 | 0.00 | 0.00 | 69 | 1012.0 |
| 20260506201557 | 44 | 65 | 4.3 | 7.0 | 0.00 | 0.00 | 0.00 | 68 | 1012.0 |
| 20260506201304 | 45 | 65 | 5.2 | 6.1 | 0.00 | 0.00 | 0.00 | 68 | 1012.0 |
| 20260506200804 | 45 | 65 | 6.1 | 7.0 | 0.00 | 0.00 | 0.00 | 67 | 1012.1 |
| 20260506200059 | 45 | 65 | 4.3 | 7.0 | 0.00 | 0.00 | 0.00 | 65 | 1012.0 |
| 20260506194634 | 47 | 60 | 3.5 | 8.7 | 0.00 | 0.00 | 0.00 | 63 | 1012.0 |
| 20260506194304 | 48 | 60 | 4.3 | 7.0 | 0.00 | 0.00 | 0.00 | 63 | 1011.9 |
| 20260506193804 | 48 | 53 | 5.2 | 8.7 | 0.00 | 0.00 | 0.00 | 62 | 1012.0 |
| 20260506193304 | 48 | 55 | 5.2 | 8.7 | 0.00 | 0.00 | 0.00 | 62 | 1011.9 |
| 20260506193106 | 48 | 53 | 5.2 | 8.7 | 0.00 | 0.00 | 0.00 | 61 | 1012.0 |
| 20260506191557 | 49 | 63 | 4.3 | 9.6 | 0.00 | 0.00 | 0.00 | 60 | 1011.8 |
| 20260506191305 | 49 | 66 | 4.3 | 8.7 | 0.00 | 0.00 | 0.00 | 60 | 1011.8 |
| 20260506190804 | 49 | 58 | 7.8 | 10.4 | 0.00 | 0.00 | 0.00 | 60 | 1011.8 |
| 20260506184804 | 50 | 52 | 7.0 | 10.4 | 0.00 | 0.00 | 0.00 | 61 | 1011.5 |
| 20260506184557 | 50 | 49 | 7.8 | 13.0 | 0.00 | 0.00 | 0.00 | 60 | 1011.4 |
| 20260506184304 | 50 | 53 | 9.6 | 13.0 | 0.00 | 0.00 | 0.00 | 60 | 1011.5 |
| 20260506183305 | 51 | 51 | 11.3 | 15.6 | 0.00 | 0.00 | 0.00 | 60 | 1011.3 |
| 20260506183057 | 50 | 48 | 9.6 | 15.6 | 0.00 | 0.00 | 0.00 | 60 | 1011.3 |
| 20260506181804 | 51 | 43 | 9.6 | 13.9 | 0.00 | 0.00 | 0.00 | 59 | 1011.4 |
| 20260506181559 | 51 | 39 | 9.6 | 16.5 | 0.00 | 0.00 | 0.00 | 58 | 1011.2 |
| 20260506181304 | 51 | 42 | 12.2 | 15.6 | 0.00 | 0.00 | 0.00 | 59 | 1011.4 |
| 20260506180305 | 52 | 54 | 12.2 | 17.4 | 0.00 | 0.00 | 0.00 | 59 | 1011.3 |
| 20260506180107 | 51 | 54 | 11.3 | 14.8 | 0.00 | 0.00 | 0.00 | 59 | 1011.2 |
| 20260506174804 | 52 | 55 | 12.2 | 15.6 | 0.00 | 0.00 | 0.00 | 59 | 1011.3 |
| 20260506174601 | 52 | 66 | 12.2 | 15.6 | 0.00 | 0.00 | 0.00 | 58 | 1011.2 |
| 20260506174304 | 52 | 49 | 12.2 | 14.8 | 0.00 | 0.00 | 0.00 | 59 | 1011.3 |
| 20260506173804 | 52 | 54 | 12.2 | 15.6 | 0.00 | 0.00 | 0.00 | 58 | 1011.2 |
| 20260506173059 | 52 | 40 | 8.7 | 15.6 | 0.00 | 0.00 | 0.00 | 56 | 1011.2 |
| 20260506171804 | 53 | 39 | 7.0 | 13.0 | 0.00 | 0.00 | 0.00 | 51 | 1011.2 |
| 20260506171604 | 53 | 29 | 7.0 | 15.6 | 0.00 | 0.00 | 0.00 | 50 | 1011.2 |
| 20260506171304 | 53 | 38 | 7.8 | 13.9 | 0.00 | 0.00 | 0.00 | 50 | 1011.2 |
| 20260506170804 | 53 | 56 | 11.3 | 15.6 | 0.00 | 0.00 | 0.00 | 50 | 1011.3 |
| 20260506170304 | 53 | 36 | 7.8 | 14.8 | 0.00 | 0.00 | 0.00 | 49 | 1011.2 |
| 20260506170111 | 53 | 45 | 9.6 | 14.8 | 0.00 | 0.00 | 0.00 | 48 | 1011.1 |
| 20260506164804 | 54 | 47 | 10.4 | 13.9 | 0.00 | 0.00 | 0.00 | 50 | 1011.2 |
| 20260506164607 | 53 | 33 | 10.4 | 15.6 | 0.00 | 0.00 | 0.00 | 50 | 1011.1 |
| 20260506164304 | 54 | 50 | 8.7 | 13.0 | 0.00 | 0.00 | 0.00 | 51 | 1011.2 |
| 20260506163804 | 54 | 43 | 10.4 | 15.6 | 0.00 | 0.00 | 0.00 | 52 | 1011.2 |
| 20260506163119 | 53 | 48 | 7.8 | 15.6 | 0.00 | 0.00 | 0.00 | 50 | 1011.2 |
| 20260506161804 | 54 | 41 | 10.4 | 14.8 | 0.00 | 0.00 | 0.00 | 50 | 1011.1 |
| 20260506161614 | 53 | 47 | 8.7 | 13.9 | 0.00 | 0.00 | 0.00 | 49 | 1011.1 |
| 20260506161304 | 54 | 52 | 9.6 | 13.0 | 0.00 | 0.00 | 0.00 | 49 | 1011.1 |
| 20260506160804 | 54 | 36 | 10.4 | 13.9 | 0.00 | 0.00 | 0.00 | 48 | 1011.1 |
| 20260506160304 | 54 | 43 | 10.4 | 13.9 | 0.00 | 0.00 | 0.00 | 47 | 1011.1 |
| 20260506160059 | 54 | 32 | 7.8 | 13.9 | 0.00 | 0.00 | 0.00 | 46 | 1011.1 |
| 20260506154804 | 54 | 50 | 7.8 | 14.8 | 0.00 | 0.00 | 0.00 | 45 | 1011.1 |
| 20260506154624 | 54 | 40 | 7.8 | 13.9 | 0.00 | 0.00 | 0.00 | 44 | 1011.1 |
| 20260506153804 | 55 | 42 | 8.7 | 13.9 | 0.00 | 0.00 | 0.00 | 44 | 1011.1 |
| 20260506153117 | 54 | 21 | 8.7 | 13.9 | 0.00 | 0.00 | 0.00 | 42 | 1011.0 |
| 20260506151804 | 54 | 47 | 11.3 | 13.9 | 0.00 | 0.00 | 0.00 | 42 | 1011.1 |
| 20260506151600 | 53 | 53 | 10.4 | 13.0 | 0.00 | 0.00 | 0.00 | 41 | 1011.1 |
| 20260506151304 | 54 | 28 | 8.7 | 13.0 | 0.00 | 0.00 | 0.00 | 41 | 1011.2 |
| 20260506144804 | 54 | 28 | 10.4 | 13.9 | 0.00 | 0.00 | 0.00 | 35 | 1011.2 |
| 20260506144558 | 54 | 24 | 8.7 | 13.9 | 0.00 | 0.00 | 0.00 | 35 | 1011.1 |
| 20260506144304 | 54 | 35 | 11.3 | 13.9 | 0.00 | 0.00 | 0.00 | 37 | 1011.2 |
| 20260506143804 | 54 | 18 | 10.4 | 13.9 | 0.00 | 0.00 | 0.00 | 36 | 1011.2 |
| 20260506143304 | 53 | 19 | 10.4 | 14.8 | 0.00 | 0.00 | 0.00 | 34 | 1011.3 |
| 20260506143107 | 53 | 30 | 9.6 | 14.8 | 0.00 | 0.00 | 0.00 | 33 | 1011.3 |
| 20260506141804 | 54 | 28 | 10.4 | 13.9 | 0.00 | 0.00 | 0.00 | 38 | 1011.3 |
| 20260506141559 | 53 | 25 | 10.4 | 14.8 | 0.00 | 0.00 | 0.00 | 38 | 1011.3 |
| 20260506141304 | 54 | 25 | 9.6 | 13.9 | 0.00 | 0.00 | 0.00 | 38 | 1011.3 |
| 20260506140804 | 54 | 28 | 11.3 | 13.9 | 0.00 | 0.00 | 0.00 | 40 | 1011.4 |
| 20260506140304 | 54 | 28 | 11.3 | 14.8 | 0.00 | 0.00 | 0.00 | 41 | 1011.4 |
| 20260506140059 | 53 | 25 | 10.4 | 14.8 | 0.00 | 0.00 | 0.00 | 40 | 1011.4 |
| 20260506134804 | 54 | 26 | 8.7 | 14.8 | 0.00 | 0.00 | 0.00 | 40 | 1011.4 |
| 20260506134557 | 54 | 52 | 8.7 | 13.9 | 0.00 | 0.00 | 0.00 | 41 | 1011.4 |
| 20260506134304 | 54 | 20 | 8.7 | 13.0 | 0.00 | 0.00 | 0.00 | 41 | 1011.4 |
| 20260506133304 | 54 | 30 | 10.4 | 13.9 | 0.00 | 0.00 | 0.00 | 41 | 1011.4 |
| 20260506133059 | 53 | 9 | 10.4 | 13.9 | 0.00 | 0.00 | 0.00 | 41 | 1011.3 |
| 20260506131806 | 54 | 20 | 11.3 | 13.9 | 0.00 | 0.00 | 0.00 | 38 | 1011.4 |
| 20260506131601 | 54 | 24 | 9.6 | 13.9 | 0.00 | 0.00 | 0.00 | 39 | 1011.3 |
| 20260506131304 | 54 | 15 | 10.4 | 13.9 | 0.00 | 0.00 | 0.00 | 40 | 1011.4 |
| 20260506130804 | 54 | 22 | 11.3 | 13.0 | 0.00 | 0.00 | 0.00 | 39 | 1011.4 |
| 20260506130304 | 53 | 14 | 8.7 | 13.9 | 0.00 | 0.00 | 0.00 | 40 | 1011.3 |
| 20260506124559 | 53 | 11 | 9.6 | 14.8 | 0.00 | 0.00 | 0.00 | 43 | 1011.4 |
| 20260506124318 | 53 | 13 | 9.6 | 13.0 | 0.00 | 0.00 | 0.00 | 44 | 1011.4 |
| 20260506123304 | 54 | 24 | 10.4 | 13.9 | 0.00 | 0.00 | 0.00 | 44 | 1011.3 |
| 20260506123100 | 54 | 15 | 11.3 | 13.9 | 0.00 | 0.00 | 0.00 | 45 | 1011.3 |
| 20260506121804 | 54 | 347 | 10.4 | 13.0 | 0.00 | 0.00 | 0.00 | 47 | 1011.4 |
| 20260506121600 | 53 | 345 | 7.0 | 13.9 | 0.00 | 0.00 | 0.00 | 48 | 1011.3 |
| 20260506121304 | 53 | 354 | 10.4 | 13.0 | 0.00 | 0.00 | 0.00 | 48 | 1011.4 |
| 20260506120804 | 54 | 356 | 12.2 | 13.9 | 0.00 | 0.00 | 0.00 | 47 | 1011.4 |
| 20260506120304 | 54 | 355 | 7.8 | 13.0 | 0.00 | 0.00 | 0.00 | 47 | 1011.5 |
| 20260506120101 | 54 | 2 | 9.6 | 13.0 | 0.00 | 0.00 | 0.00 | 47 | 1011.4 |
| 20260506114804 | 54 | 354 | 9.6 | 13.0 | 0.00 | 0.00 | 0.00 | 48 | 1011.4 |
| 20260506114606 | 53 | 350 | 8.7 | 13.0 | 0.00 | 0.00 | 0.00 | 48 | 1011.5 |
| 20260506114304 | 54 | 1 | 11.3 | 13.0 | 0.00 | 0.00 | 0.00 | 47 | 1011.4 |
| 20260506113804 | 54 | 4 | 10.4 | 12.2 | 0.00 | 0.00 | 0.00 | 50 | 1011.5 |
| 20260506113304 | 53 | 358 | 7.0 | 12.2 | 0.00 | 0.00 | 0.00 | 52 | 1011.5 |
| 20260506113057 | 53 | 356 | 9.6 | 12.2 | 0.00 | 0.00 | 0.00 | 49 | 1011.5 |
| 20260506111804 | 53 | 4 | 8.7 | 11.3 | 0.00 | 0.00 | 0.00 | 47 | 1011.5 |
| 20260506111557 | 53 | 358 | 7.0 | 10.4 | 0.00 | 0.00 | 0.00 | 50 | 1011.5 |
| 20260506111304 | 53 | 8 | 7.0 | 10.4 | 0.00 | 0.00 | 0.00 | 44 | 1011.5 |
| 20260506110804 | 53 | 348 | 6.1 | 13.0 | 0.00 | 0.00 | 0.00 | 49 | 1011.6 |
| 20260506110305 | 53 | 3 | 6.1 | 13.0 | 0.00 | 0.00 | 0.00 | 48 | 1011.7 |
| 20260506110103 | 53 | 356 | 6.1 | 12.2 | 0.00 | 0.00 | 0.00 | 48 | 1011.7 |
| 20260506104804 | 53 | 15 | 6.1 | 10.4 | 0.00 | 0.00 | 0.00 | 46 | 1011.8 |
| 20260506104600 | 53 | 313 | 7.0 | 11.3 | 0.00 | 0.00 | 0.00 | 48 | 1011.7 |
| 20260506104304 | 53 | 322 | 5.2 | 10.4 | 0.00 | 0.00 | 0.00 | 47 | 1011.9 |
| 20260506103804 | 53 | 0 | 8.7 | 11.3 | 0.00 | 0.00 | 0.00 | 48 | 1011.9 |
| 20260506103057 | 52 | 13 | 4.3 | 11.3 | 0.00 | 0.00 | 0.00 | 45 | 1011.8 |
| 20260506101804 | 52 | 4 | 7.8 | 11.3 | 0.00 | 0.00 | 0.00 | 51 | 1012.0 |
| 20260506101604 | 52 | 7 | 7.8 | 10.4 | 0.00 | 0.00 | 0.00 | 51 | 1011.9 |
| 20260506100804 | 52 | 332 | 7.8 | 10.4 | 0.00 | 0.00 | 0.00 | 48 | 1012.0 |
| 20260506100304 | 52 | 317 | 7.0 | 11.3 | 0.00 | 0.00 | 0.00 | 52 | 1012.0 |
| 20260506100100 | 52 | 329 | 7.0 | 11.3 | 0.00 | 0.00 | 0.00 | 53 | 1011.8 |
| 20260506094804 | 53 | 344 | 6.1 | 10.4 | 0.00 | 0.00 | 0.00 | 52 | 1012.0 |
| 20260506094622 | 52 | 336 | 6.1 | 10.4 | 0.00 | 0.00 | 0.00 | 50 | 1012.0 |
| 20260506094304 | 53 | 327 | 7.0 | 10.4 | 0.00 | 0.00 | 0.00 | 50 | 1012.0 |
| 20260506093805 | 53 | 326 | 7.8 | 10.4 | 0.00 | 0.00 | 0.00 | 50 | 1011.9 |
| 20260506093304 | 53 | 338 | 7.8 | 12.2 | 0.00 | 0.00 | 0.00 | 49 | 1011.9 |
| 20260506093057 | 52 | 319 | 7.0 | 12.2 | 0.00 | 0.00 | 0.00 | 49 | 1011.8 |
| 20260506091804 | 54 | 332 | 7.0 | 12.2 | 0.00 | 0.00 | 0.00 | 46 | 1011.9 |
| 20260506091557 | 54 | 325 | 5.2 | 9.6 | 0.00 | 0.00 | 0.00 | 44 | 1011.9 |
| 20260506091304 | 55 | 335 | 6.1 | 10.4 | 0.00 | 0.00 | 0.00 | 45 | 1012.0 |
| 20260506090804 | 55 | 319 | 4.3 | 8.7 | 0.00 | 0.00 | 0.00 | 31 | 1011.9 |
| 20260506090304 | 55 | 275 | 1.7 | 7.0 | 0.00 | 0.00 | 0.00 | 31 | 1012.0 |
| 20260506090059 | 54 | 0 | 0.9 | 7.0 | 0.00 | 0.00 | 0.00 | 30 | 1011.8 |
| 20260506084804 | 54 | 193 | 5.2 | 7.8 | 0.00 | 0.00 | 0.00 | 31 | 1012.0 |
| 20260506084602 | 54 | 174 | 3.5 | 10.4 | 0.00 | 0.00 | 0.00 | 31 | 1012.0 |
| 20260506083804 | 55 | 219 | 6.1 | 10.4 | 0.00 | 0.00 | 0.00 | 32 | 1012.0 |
| 20260506083305 | 54 | 203 | 1.7 | 11.3 | 0.00 | 0.00 | 0.00 | 31 | 1012.0 |
| 20260506083103 | 54 | 257 | 2.6 | 11.3 | 0.00 | 0.00 | 0.00 | 31 | 1011.9 |
| 20260506081804 | 54 | 212 | 4.3 | 8.7 | 0.00 | 0.00 | 0.00 | 34 | 1012.1 |
| 20260506081559 | 53 | 254 | 5.2 | 11.3 | 0.00 | 0.00 | 0.00 | 35 | 1012.0 |
| 20260506081304 | 53 | 219 | 5.2 | 8.7 | 0.00 | 0.00 | 0.00 | 38 | 1012.0 |
| 20260506080804 | 53 | 193 | 8.7 | 11.3 | 0.00 | 0.00 | 0.00 | 36 | 1012.1 |
| 20260506080304 | 53 | 198 | 8.7 | 12.2 | 0.00 | 0.00 | 0.00 | 37 | 1012.0 |
| 20260506073304 | 52 | 210 | 7.0 | 13.0 | 0.00 | 0.00 | 0.00 | 40 | 1012.1 |
| 20260506073105 | 51 | 169 | 5.2 | 12.2 | 0.00 | 0.00 | 0.00 | 41 | 1012.0 |
| 20260506071804 | 51 | 175 | 7.8 | 11.3 | 0.00 | 0.00 | 0.00 | 44 | 1012.0 |
| 20260506071559 | 50 | 184 | 7.0 | 13.0 | 0.00 | 0.00 | 0.00 | 44 | 1012.0 |
| 20260506071304 | 51 | 193 | 7.8 | 12.2 | 0.00 | 0.00 | 0.00 | 46 | 1012.1 |
| 20260506070804 | 50 | 169 | 5.2 | 10.4 | 0.00 | 0.00 | 0.00 | 45 | 1012.1 |
| 20260506070304 | 50 | 194 | 7.8 | 11.3 | 0.00 | 0.00 | 0.00 | 45 | 1012.0 |
| 20260506070109 | 49 | 183 | 7.0 | 10.4 | 0.00 | 0.00 | 0.00 | 45 | 1012.0 |
| 20260506061806 | 48 | 178 | 7.8 | 10.4 | 0.00 | 0.00 | 0.00 | 49 | 1012.1 |
| 20260506061600 | 47 | 181 | 4.3 | 10.4 | 0.00 | 0.00 | 0.00 | 49 | 1012.2 |
| 20260506061304 | 48 | 159 | 6.1 | 10.4 | 0.00 | 0.00 | 0.00 | 51 | 1012.1 |